RH
88 79 70 83 89 87 94 82 68 88 93 82 52 55 51 69 48 40 33 22 16 21 22 24 24 35 35 41 31 31 32 39 37 29 33 43 43 44 45 57 100 79 53 43 33 43 64 88 88
91 75 79 67 77 100 100 100 91 100 100 82 58 48 64 70 66 59 40 32 21 17 22 27 26 40 52 48 40 31 31 32 42 36 41 40 48 55 58 66 80 86 62 42 39 53 80 100 92
100 95 95 92 89 96 100 92 100 100 91 70 60 66 74 96 94 75 54 42 28 19 24 26 32 50 77 52 51 37 43 36 48 45 43 41 42 66 69 86 94 86 51 39 45 62 98 98 73
86 100 100 100 100 100 96 100 100 100 78 74 66 86 80 100 100 89 82 54 37 25 27 26 32 54 92 46 60 49 45 44 55 65 53 48 43 42 59 96 93 67 42 39 56 62 100 90 66
55 62 33 48 97 100 100 100 98 88 82 75 94 86 82 100 100 89 67 59 39 44 51 38 29 54 39 53 86 44 41 45 55 66 54 52 47 47 67 63 86 43 39 46 65 74 100 88 66
36 37 43 49 51 99 100 95 92 100 86 100 96 80 86 100 100 92 67 58 52 49 79 78 67 47 40 31 63 46 50 53 48 66 64 65 57 72 78 83 69 40 44 57 70 76 100 91 71
44 49 60 67 84 92 100 100 90 89 100 100 100 93 100 100 100 100 74 72 84 86 86 85 72 62 50 38 33 44 54 51 49 74 77 82 74 85 100 91 48 36 47 70 78 78 100 85 78
58 68 92 100 100 100 100 100 100 100 100 100 100 100 100 100 100 100 85 99 94 100 100 91 80 75 60 53 39 35 52 65 50 69 97 92 89 99 100 82 42 34 46 74 79 80 100 94 77
78 89 100 100 100 100 100 100 100 100 100 100 100 100 100 87 72 97 100 100 100 92 100 100 98 85 68 78 50 32 44 80 69 83 90 85 100 100 99 83 36 35 51 84 85 86 100 85 90
76 56 67 90 98 100 100 100 100 100 100 100 100 92 64 86 100 100 100 97 96 84 98 100 97 91 78 83 59 39 32 58 56 74 81 96 100 100 97 91 39 39 64 94 89 95 100 95 93
68 72 77 100 96 100 100 100 100 100 100 100 99 90 98 100 94 81 99 100 88 96 100 72 51 62 56 53 53 46 32 55 69 70 78 98 100 100 100 78 42 41 74 89 97 100 100 88 95
88 90 87 96 100 71 100 100 100 100 100 100 100 100 91 72 54 43 90 88 96 56 43 53 51 52 54 56 56 46 33 92 92 84 91 100 100 100 100 60 39 67 89 85 98 100 100 100 87
100 95 88 93 73 66 91 93 89 98 100 100 100 96 92 77 66 56 48 44 55 54 48 51 60 72 64 64 63 58 41 100 100 85 99 100 100 100 89 49 55 94 96 87 100 93 100 100 88
85 80 67 64 78 84 70 67 86 100 100 91 85 77 69 65 51 38 31 42 55 73 68 64 76 73 73 78 68 42 49 100 100 87 100 100 100 100 79 37 89 100 100 97 100 100 100 100 100
78 64 55 93 94 86 79 59 100 85 76 67 53 53 56 51 49 70 54 33 56 96 100 92 80 77 72 78 63 52 68 100 100 100 100 100 100 100 50 41 100 100 100 85 100 100 96 100 100
78 81 61 86 77 99 100 61 86 74 65 46 34 30 26 28 45 79 100 100 80 98 100 99 84 75 72 64 64 73 73 100 100 100 100 100 100 100 41 80 100 100 100 94 100 100 100 100 100
85 61 47 54 100 86 66 44 42 65 64 44 38 39 42 39 51 73 96 100 99 100 100 90 74 67 66 68 73 62 86 93 100 100 99 100 100 78 60 100 100 100 100 100 100 100 100 97 100
61 49 47 50 54 40 32 26 24 47 64 54 63 51 44 60 52 56 66 63 60 98 97 81 74 72 76 79 75 56 98 99 100 100 100 100 100 68 82 100 96 100 100 100 100 100 90 92 97
52 43 35 36 38 38 30 24 24 37 48 46 44 38 44 44 48 48 36 27 38 69 91 85 84 66 74 81 89 58 95 100 100 100 100 100 94 62 100 100 90 96 100 100 100 100 86 71 85
45 37 27 22 24 25 25 24 24 26 31 44 45 41 35 35 32 24 18 14 19 39 35 42 42 60 58 74 99 49 88 100 100 100 100 100 82 34 95 100 99 100 100 98 100 87 93 85 90
51 48 23 19 23 28 38 36 28 38 36 31 19 10 13 17 19 16 14 14 13 14 15 16 32 48 39 51 100 41 72 91 100 83 100 100 62 65 100 100 100 100 100 100 100 100 100 82 67
43 37 28 20 26 26 38 12 13 15 10 9 9 8 10 11 11 12 17 16 14 14 14 12 16 19 21 48 99 44 66 100 100 100 100 100 54 68 93 100 100 100 89 88 100 100 100 68 70
30 27 17 15 12 11 10 8 7 6 6 7 6 6 7 8 9 11 12 14 14 12 12 11 15 14 22 59 92 50 72 100 100 100 100 96 56 58 64 76 100 100 100 98 100 100 100 100 64
14 13 12 12 9 7 6 6 7 6 6 6 6 6 6 7 8 10 11 11 11 12 13 14 16 16 33 76 79 50 76 98 100 100 100 89 66 76 69 69 94 100 100 100 100 100 100 100 68
12 10 8 6 6 7 8 8 7 6 6 5 5 6 6 7 7 9 11 11 11 12 12 11 14 16 35 99 73 100 100 99 98 100 100 89 58 65 90 97 100 100 100 100 100 100 100 100 94
8 6 7 8 8 9 8 7 7 6 5 5 6 7 8 8 8 9 10 11 11 12 12 11 15 17 34 74 65 100 100 100 86 100 100 86 47 61 94 100 100 100 100 100 92 93 100 100 96
8 9 9 8 6 6 6 7 6 5 5 4 5 6 8 9 10 10 10 12 12 11 12 11 14 16 45 62 81 100 100 60 78 90 100 76 42 57 75 100 100 100 100 100 84 89 93 99 100
8 7 6 6 6 7 7 6 5 4 3 3 3 4 7 9 10 11 13 15 13 13 13 13 16 15 38 50 65 100 69 72 69 96 100 80 45 40 73 100 100 90 79 86 94 93 98 100 100
6 6 6 6 6 5 5 5 5 6 6 4 3 4 8 12 13 16 21 22 19 15 15 15 17 16 29 46 63 85 98 90 72 79 83 90 44 32 76 92 86 82 75 86 93 100 100 100 100
6 6 5 5 5 6 7 7 9 8 6 6 5 5 11 15 16 18 24 16 19 19 18 16 17 16 27 33 61 80 82 72 72 67 83 83 86 38 56 69 66 80 100 100 100 100 100 100 100
Wind_Speed
45 47 48 49 48 52 57 63 62 56 48 45 56 53 52 52 55 54 55 60 61 57 53 52 50 48 43 43 41 38 38 40 36 35 36 35 35 34 34 30 25 26 30 25 25 22 20 19 19
52 53 50 52 52 49 55 63 64 56 47 50 53 62 52 54 52 57 55 58 63 63 58 57 56 48 42 45 49 37 36 35 36 35 34 36 36 35 32 31 26 28 28 24 24 19 19 20 21
61 61 59 56 54 56 57 66 66 57 54 55 53 57 53 58 56 58 57 57 60 66 63 63 57 49 48 48 46 41 34 33 35 34 35 36 37 36 34 32 31 31 25 24 22 18 18 20 21
57 60 59 59 54 60 65 68 64 63 63 61 60 53 53 60 59 58 54 62 61 63 59 60 58 54 53 51 47 45 35 32 33 33 34 36 35 38 35 37 34 26 18 22 21 19 18 18 17
53 56 55 58 60 63 65 70 70 71 67 70 58 56 55 64 58 62 61 60 60 61 61 62 61 55 57 51 48 41 36 36 33 33 33 35 35 36 31 29 23 20 19 23 20 20 20 18 18
61 57 56 57 59 67 65 77 75 73 75 72 59 58 59 65 66 65 63 60 59 59 55 56 58 59 58 57 48 39 35 36 37 35 34 34 33 32 29 26 21 21 21 23 19 21 22 19 17
68 66 60 60 64 69 68 73 74 74 71 71 70 63 60 67 66 68 60 59 60 62 60 61 62 66 63 60 57 44 36 35 37 34 35 33 30 30 30 26 20 22 23 22 20 21 20 20 18
74 70 62 66 66 63 70 71 74 76 73 77 77 65 67 66 65 68 65 63 61 63 62 64 64 63 61 57 60 48 40 39 37 36 35 31 28 30 31 25 20 23 24 21 20 23 21 19 16
75 72 67 67 71 70 73 71 72 75 76 75 71 72 72 72 70 65 68 67 66 64 65 53 55 61 59 57 57 50 45 39 39 36 35 31 29 32 30 25 21 24 25 21 22 21 23 19 17
75 76 76 77 77 75 77 77 75 74 73 76 75 76 75 72 67 65 71 70 70 69 66 58 55 59 61 55 56 54 49 42 40 39 33 31 31 33 31 27 23 25 26 24 24 28 25 21 19
81 80 82 84 87 87 83 82 76 74 75 76 72 71 73 70 70 71 72 72 72 68 65 69 68 65 64 60 58 55 49 43 43 41 33 31 32 36 33 27 27 28 29 25 27 26 27 22 21
89 86 86 86 92 95 94 83 75 75 72 72 66 67 71 75 81 78 71 74 75 75 77 77 70 73 71 66 57 54 43 42 41 39 32 30 33 35 32 28 30 30 30 26 28 30 27 25 23
92 93 95 98 96 96 98 88 84 78 74 75 75 74 71 74 77 80 84 82 82 81 78 71 69 73 72 68 54 48 39 41 40 37 33 30 34 34 31 29 31 31 27 26 28 31 30 27 25
100 102 103 102 102 104 105 94 85 78 81 80 81 77 78 80 83 85 88 86 86 84 79 74 72 74 70 64 52 40 41 42 40 36 35 32 35 33 30 29 33 29 28 27 28 31 32 30 28
104 103 105 101 103 105 103 86 81 83 85 85 84 83 86 87 89 90 92 92 90 86 82 80 77 71 72 63 52 43 45 43 41 38 36 34 33 32 30 31 34 29 28 29 30 33 32 32 29
110 105 105 98 105 97 96 84 82 89 88 86 88 92 93 94 90 96 92 92 92 90 90 85 82 76 75 67 51 45 46 43 41 41 38 36 34 31 30 36 35 31 29 31 31 32 34 31 30
112 109 114 98 103 95 102 91 79 92 92 91 98 96 96 94 93 95 102 105 100 96 95 93 88 83 77 64 47 46 50 46 41 40 39 37 35 31 32 40 36 34 31 33 35 34 33 33 28
114 117 107 102 98 103 103 102 89 90 98 98 101 103 104 101 101 107 109 110 113 104 99 90 88 86 78 62 51 46 49 46 37 40 40 39 35 32 36 41 34 32 31 32 38 36 35 31 28
115 114 109 104 107 122 110 105 105 98 110 109 111 115 117 115 112 114 110 102 99 102 101 92 89 86 78 59 51 50 48 46 41 42 42 41 38 33 36 39 36 34 36 31 29 31 32 30 28
113 114 112 106 108 115 119 119 112 117 114 124 122 123 121 115 109 103 90 77 79 90 83 85 83 80 75 59 53 55 54 47 44 46 47 43 40 33 39 39 39 37 31 27 25 27 28 28 28
109 112 111 115 116 121 130 132 125 120 124 123 115 108 100 97 90 89 87 81 73 70 67 59 68 73 69 58 55 57 57 49 48 48 43 41 39 40 41 39 42 41 33 30 31 32 33 32 29
114 121 118 124 126 124 130 136 125 113 106 104 102 99 94 90 84 83 90 86 79 74 71 59 55 58 60 57 57 57 57 49 48 53 51 47 43 46 43 44 44 41 38 41 41 38 43 39 34
122 124 127 131 130 126 117 120 104 108 99 93 93 94 87 89 85 86 87 89 86 80 71 61 57 54 54 54 58 59 55 47 51 53 49 46 44 47 43 45 50 48 46 45 47 47 48 48 37
113 122 131 126 121 114 112 107 103 95 93 86 87 83 80 80 81 82 87 87 81 80 75 66 62 55 57 57 60 61 55 48 50 51 51 48 47 50 44 49 50 57 56 55 52 50 52 49 43
120 120 118 113 109 106 104 100 98 88 80 79 82 78 77 78 76 78 82 87 81 78 76 64 59 52 66 68 67 58 55 55 53 52 53 49 49 50 46 49 54 58 64 62 57 54 51 49 54
111 109 106 100 97 93 93 84 80 77 68 65 64 64 68 74 76 74 77 82 80 76 77 64 61 55 67 76 70 62 59 62 55 53 51 50 50 50 51 50 55 58 60 61 56 53 50 53 56
101 98 96 89 82 73 73 72 69 64 52 49 50 55 62 63 65 70 73 78 79 73 74 62 61 56 69 81 73 64 64 60 55 54 52 54 52 52 52 50 50 55 60 57 53 48 48 52 54
87 83 78 75 70 64 58 57 56 48 42 38 37 37 49 60 60 57 67 75 77 73 73 65 61 55 67 85 78 68 69 63 59 54 54 56 54 54 53 51 51 53 52 53 57 56 54 52 51
72 69 69 65 57 53 49 47 42 35 32 28 33 35 44 53 58 59 66 74 78 73 73 67 64 55 70 87 78 70 69 68 62 54 52 55 55 54 52 52 52 50 52 50 48 47 46 47 48
63 59 56 51 48 43 39 38 30 27 25 26 30 39 47 55 58 60 70 72 73 73 72 69 64 57 65 79 82 77 72 69 62 56 56 57 56 53 55 54 54 51 49 44 42 41 41 41 46
Wind_Direction
317 322 324 324 324 323 315 320 326 327 319 318 326 322 324 319 321 319 321 327 323 307 304 310 315 318 315 309 308 293 288 284 281 281 283 283 282 274 278 281 290 292 302 295 284 277 265 259 260
312 312 317 325 320 315 309 311 316 318 315 313 319 323 315 312 311 317 314 319 324 315 304 311 314 313 317 309 315 295 287 279 276 274 277 277 275 274 276 276 280 292 300 287 278 271 265 264 259
307 305 309 316 318 311 307 309 310 309 308 309 312 321 311 307 304 312 311 310 318 320 305 306 316 312 313 312 311 302 287 279 274 271 273 277 274 273 276 280 285 288 288 279 270 261 257 260 266
304 305 305 309 312 309 306 306 304 302 305 309 311 314 306 301 301 305 306 308 310 314 302 304 306 317 309 309 307 310 282 274 268 267 271 274 278 275 274 274 281 277 277 274 263 248 256 255 259
303 303 313 303 300 306 302 300 301 303 304 305 308 308 304 295 295 299 307 306 307 306 301 303 308 308 316 309 307 308 287 276 266 265 267 273 275 274 275 277 271 269 274 266 252 241 250 251 257
304 304 306 308 299 300 295 296 300 301 303 301 303 301 300 293 297 301 305 305 303 302 298 298 300 302 308 312 302 309 288 278 267 262 266 271 273 270 272 271 264 266 264 258 244 239 242 243 252
303 303 304 306 299 295 291 295 297 300 301 297 301 296 291 291 295 298 302 302 297 294 292 292 293 297 302 308 307 302 291 281 270 265 266 270 273 265 262 259 263 265 259 251 230 228 239 244 244
300 303 302 299 293 295 294 296 298 300 297 297 297 293 285 290 292 291 296 292 290 289 292 298 302 300 300 303 310 299 292 282 271 265 270 271 272 261 258 256 264 261 255 243 224 223 237 234 238
298 306 303 295 293 296 296 295 294 295 294 293 293 289 287 292 292 290 289 287 285 288 288 295 302 299 302 302 305 298 294 278 271 266 273 269 264 256 254 259 263 258 250 232 220 217 227 223 226
297 299 299 294 295 297 296 296 295 291 289 289 291 292 294 288 288 289 288 286 283 285 283 293 296 293 297 300 300 296 291 274 272 270 272 268 259 256 254 259 259 252 242 221 215 215 229 222 219
297 297 296 293 292 295 298 295 292 289 289 286 290 290 287 283 286 291 286 283 283 282 287 290 294 295 298 300 300 292 290 266 268 268 270 262 259 256 255 257 258 248 236 215 213 216 223 220 213
290 291 291 293 293 295 295 294 291 289 288 286 281 281 284 283 286 290 287 286 284 285 286 286 287 292 297 306 297 291 280 256 264 265 266 259 259 256 254 257 255 238 232 212 213 214 220 215 214
292 292 293 292 292 290 292 293 290 290 288 284 284 288 288 287 288 289 288 287 287 285 285 285 290 295 296 303 293 283 260 251 262 261 262 258 256 252 256 262 241 229 222 211 212 214 214 217 213
291 293 295 294 292 288 288 291 291 291 285 285 285 284 285 287 288 289 289 288 285 281 284 287 288 291 292 294 288 273 249 246 257 256 257 250 254 253 259 253 231 223 220 213 213 215 217 216 212
290 292 295 294 291 291 289 288 290 283 285 285 286 287 286 286 286 287 287 289 286 282 281 284 285 285 289 285 281 258 243 244 252 253 251 245 249 251 253 240 225 220 218 213 216 217 221 218 215
292 291 291 292 289 288 286 291 286 286 283 283 286 286 285 284 285 287 281 279 282 277 278 279 279 282 282 284 269 250 243 243 249 253 245 243 243 245 245 229 221 215 216 210 215 217 213 213 216
292 293 294 290 287 286 287 285 285 283 282 285 286 286 282 283 283 283 279 276 274 272 273 278 278 278 275 274 256 240 245 239 248 250 243 241 242 239 230 222 220 216 210 207 209 216 213 214 217
293 294 291 290 288 288 289 292 287 283 281 282 282 282 281 278 276 277 276 273 272 268 269 272 272 273 270 264 252 235 246 242 243 244 238 240 236 230 225 221 216 214 203 203 213 217 217 215 218
291 290 289 290 291 289 290 290 288 284 281 281 279 278 278 276 273 275 274 268 264 264 264 264 261 264 260 258 250 231 240 241 235 240 235 235 231 221 219 219 214 205 199 205 213 219 221 215 213
288 285 292 291 289 287 287 284 282 281 281 281 279 275 274 269 270 270 266 265 263 261 259 259 257 254 255 246 244 225 229 233 230 230 231 233 233 231 212 215 209 192 195 208 218 226 226 223 225
287 291 291 289 285 287 288 286 282 281 279 278 274 274 273 270 267 263 259 262 258 255 255 250 244 246 246 235 230 220 224 228 231 227 229 229 226 215 213 209 205 199 196 211 226 236 239 234 231
291 290 286 287 286 283 287 281 279 280 272 272 272 271 266 263 259 256 256 258 257 256 255 247 239 238 238 225 219 218 222 227 228 224 223 219 220 210 210 205 200 201 207 214 226 219 236 245 240
288 285 282 283 279 279 281 280 283 276 275 272 270 267 266 261 257 252 250 250 253 253 252 251 242 243 232 216 212 215 220 222 224 223 220 219 217 213 209 203 199 205 210 217 220 222 231 242 240
287 282 282 282 283 282 282 282 282 281 280 279 272 269 263 256 252 247 246 247 247 247 248 245 241 242 213 205 206 211 217 216 220 223 221 216 214 212 207 203 200 203 206 213 219 221 228 239 244
284 284 281 283 286 287 286 285 285 280 276 271 267 262 257 252 247 243 240 242 242 242 243 242 238 238 206 199 202 209 219 218 217 221 220 215 215 210 207 206 204 203 204 212 221 224 225 227 242
287 285 286 286 284 284 283 282 279 278 273 267 258 251 248 244 241 238 235 237 239 238 238 237 233 223 210 199 200 205 218 216 215 220 222 216 215 211 209 206 204 207 208 211 218 222 224 223 240
287 287 286 285 283 281 282 282 279 278 276 265 255 243 234 234 234 234 232 232 236 236 236 233 229 221 208 202 199 206 215 212 214 217 222 219 217 211 205 202 205 208 207 212 211 211 219 224 231
285 286 286 285 287 285 282 278 278 279 273 259 249 232 220 218 222 222 223 227 231 232 233 231 223 217 209 206 202 205 208 212 212 215 223 218 218 211 204 206 207 203 205 209 212 216 217 222 229
288 288 288 288 287 284 281 277 276 276 270 258 242 217 204 199 205 206 211 219 225 228 230 227 219 212 210 208 203 205 208 212 214 216 221 222 219 215 207 206 205 198 200 200 206 208 213 218 226
291 289 286 285 283 279 275 273 270 259 243 232 220 208 190 191 198 201 209 218 221 224 226 224 216 210 210 212 205 207 208 210 212 211 220 220 218 217 212 205 205 204 201 201 205 213 218 222 228